Time,TemperatureF,DewpointF,PressureIn,WindDirection,WindDirectionDegrees,WindSpeedMPH,WindSpeedGustMPH,Humidity,HourlyPrecipIn,Conditions,Clouds,dailyrainin,SoftwareType,DateUTC
2013-08-19 00:00:00,70.9,59.8,29.61,ESE,112,0.0,-999.0,68,-99.99,,,0.00,Acu-Link.com,2013-08-19 07:00:00,
2013-08-19 00:15:00,70.7,58.8,29.60,NW,315,0.0,-999.0,66,-99.99,,,0.00,Acu-Link.com,2013-08-19 07:15:00,
2013-08-19 00:30:00,70.3,58.8,29.61,NNW,337,0.0,-999.0,67,-99.99,,,0.00,Acu-Link.com,2013-08-19 07:30:00,
2013-08-19 00:45:00,70.0,58.9,29.60,NW,315,0.0,-999.0,68,-99.99,,,0.00,Acu-Link.com,2013-08-19 07:45:00,
2013-08-19 01:01:00,69.4,58.8,29.60,NNW,337,0.0,-999.0,69,-99.99,,,0.00,Acu-Link.com,2013-08-19 08:01:00,
2013-08-19 01:16:00,69.3,58.7,29.61,WNW,292,0.0,-999.0,69,-99.99,,,0.00,Acu-Link.com,2013-08-19 08:16:00,
2013-08-19 01:31:00,68.9,58.3,29.61,ENE,67,0.0,-999.0,69,-99.99,,,0.00,Acu-Link.com,2013-08-19 08:31:00,
2013-08-19 01:46:00,68.2,58.8,29.61,SE,135,0.0,-999.0,72,-99.99,,,0.00,Acu-Link.com,2013-08-19 08:46:00,
2013-08-19 02:01:00,68.0,58.6,29.61,ESE,112,0.0,-999.0,72,-99.99,,,0.00,Acu-Link.com,2013-08-19 09:01:00,
2013-08-19 02:17:00,67.6,58.6,29.60,SW,225,0.0,-999.0,73,-99.99,,,0.00,Acu-Link.com,2013-08-19 09:17:00,
2013-08-19 02:32:00,67.1,58.1,29.59,NE,45,0.0,-999.0,73,-99.99,,,0.00,Acu-Link.com,2013-08-19 09:32:00,
2013-08-19 02:47:00,66.7,58.1,29.59,South,180,0.0,-999.0,74,-99.99,,,0.00,Acu-Link.com,2013-08-19 09:47:00,
2013-08-19 03:02:00,66.4,58.2,29.59,WNW,292,0.0,-999.0,75,-99.99,,,0.00,Acu-Link.com,2013-08-19 10:02:00,
2013-08-19 03:18:00,66.0,58.2,29.58,SE,135,0.0,-999.0,76,-99.99,,,0.00,Acu-Link.com,2013-08-19 10:18:00,
2013-08-19 03:33:00,65.7,58.3,29.59,SW,225,0.0,-999.0,77,-99.99,,,0.00,Acu-Link.com,2013-08-19 10:33:00,
2013-08-19 03:48:00,65.7,58.3,29.59,SSE,157,0.0,-999.0,77,-99.99,,,0.00,Acu-Link.com,2013-08-19 10:48:00,
2013-08-19 04:03:00,65.7,58.3,29.59,ESE,112,0.0,-999.0,77,-99.99,,,0.00,Acu-Link.com,2013-08-19 11:03:00,
2013-08-19 04:19:00,65.3,57.9,29.60,West,270,0.0,-999.0,77,-99.99,,,0.00,Acu-Link.com,2013-08-19 11:19:00,
2013-08-19 04:34:00,65.3,58.3,29.60,ESE,112,0.0,-999.0,78,-99.99,,,0.00,Acu-Link.com,2013-08-19 11:34:00,
2013-08-19 04:49:00,65.5,58.1,29.60,ESE,112,0.0,-999.0,77,-99.99,,,0.00,Acu-Link.com,2013-08-19 11:49:00,
2013-08-19 05:05:00,65.3,57.9,29.60,East,90,0.0,-999.0,77,-99.99,,,0.00,Acu-Link.com,2013-08-19 12:05:00,
2013-08-19 05:20:00,65.1,58.4,29.61,SE,135,0.0,-999.0,79,-99.99,,,0.00,Acu-Link.com,2013-08-19 12:20:00,
2013-08-19 05:36:00,64.8,58.5,29.62,NNW,337,0.0,-999.0,80,-99.99,,,0.00,Acu-Link.com,2013-08-19 12:36:00,
2013-08-19 05:51:00,64.4,58.1,29.62,WNW,292,0.0,-999.0,80,-99.99,,,0.00,Acu-Link.com,2013-08-19 12:51:00,
2013-08-19 06:06:00,64.2,57.9,29.62,West,270,0.0,-999.0,80,-99.99,,,0.00,Acu-Link.com,2013-08-19 13:06:00,
2013-08-19 06:21:00,64.0,58.0,29.63,West,270,0.0,-999.0,81,-99.99,,,0.00,Acu-Link.com,2013-08-19 13:21:00,
2013-08-19 06:36:00,63.9,58.3,29.63,SSE,157,0.0,-999.0,82,-99.99,,,0.00,Acu-Link.com,2013-08-19 13:36:00,
2013-08-19 06:52:00,64.0,58.4,29.64,ESE,112,0.0,-999.0,82,-99.99,,,0.00,Acu-Link.com,2013-08-19 13:52:00,
2013-08-19 07:07:00,64.0,58.4,29.65,West,270,0.0,-999.0,82,-99.99,,,0.00,Acu-Link.com,2013-08-19 14:07:00,
2013-08-19 07:22:00,64.2,58.6,29.65,South,180,0.0,-999.0,82,-99.99,,,0.00,Acu-Link.com,2013-08-19 14:22:00,
2013-08-19 07:37:00,64.8,58.8,29.65,South,180,0.0,-999.0,81,-99.99,,,0.00,Acu-Link.com,2013-08-19 14:37:00,
2013-08-19 07:52:00,65.5,59.5,29.66,SE,135,0.0,-999.0,81,-99.99,,,0.00,Acu-Link.com,2013-08-19 14:52:00,
2013-08-19 08:08:00,66.6,60.9,29.67,SE,135,0.0,-999.0,82,-99.99,,,0.00,Acu-Link.com,2013-08-19 15:08:00,
2013-08-19 08:23:00,67.5,60.4,29.67,SE,135,0.0,-999.0,78,-99.99,,,0.00,Acu-Link.com,2013-08-19 15:23:00,
2013-08-19 08:38:00,68.7,60.8,29.67,South,180,0.0,-999.0,76,-99.99,,,0.00,Acu-Link.com,2013-08-19 15:38:00,
2013-08-19 08:53:00,70.3,61.2,29.67,NNW,337,0.0,-999.0,73,-99.99,,,0.00,Acu-Link.com,2013-08-19 15:53:00,
2013-08-19 09:09:00,72.3,62.4,29.67,NE,45,0.0,-999.0,71,-99.99,,,0.00,Acu-Link.com,2013-08-19 16:09:00,
2013-08-19 09:24:00,73.8,63.0,29.67,South,180,0.0,-999.0,69,-99.99,,,0.00,Acu-Link.com,2013-08-19 16:24:00,
2013-08-19 09:39:00,75.6,61.6,29.67,ESE,112,0.0,-999.0,62,-99.99,,,0.00,Acu-Link.com,2013-08-19 16:39:00,
2013-08-19 09:54:00,76.8,62.3,29.67,ESE,112,0.0,-999.0,61,-99.99,,,0.00,Acu-Link.com,2013-08-19 16:54:00,
2013-08-19 10:09:00,78.3,61.3,29.68,ESE,112,0.0,-999.0,56,-99.99,,,0.00,Acu-Link.com,2013-08-19 17:09:00,
2013-08-19 10:25:00,80.2,61.0,29.68,SSE,157,0.0,-999.0,52,-99.99,,,0.00,Acu-Link.com,2013-08-19 17:25:00,
2013-08-19 10:40:00,82.0,58.5,29.68,SE,135,0.0,-999.0,45,-99.99,,,0.00,Acu-Link.com,2013-08-19 17:40:00,
2013-08-19 10:55:00,83.3,59.7,29.68,ESE,112,0.0,-999.0,45,-99.99,,,0.00,Acu-Link.com,2013-08-19 17:55:00,
2013-08-19 11:10:00,85.1,59.4,29.67,ESE,112,0.0,-999.0,42,-99.99,,,0.00,Acu-Link.com,2013-08-19 18:10:00,
2013-08-19 11:26:00,87.6,58.1,29.67,ESE,112,1.1,-999.0,37,-99.99,,,0.00,Acu-Link.com,2013-08-19 18:26:00,
2013-08-19 11:41:00,90.1,61.0,29.66,NW,315,1.7,-999.0,38,-99.99,,,0.00,Acu-Link.com,2013-08-19 18:41:00,
2013-08-19 11:56:00,91.2,61.2,29.67,ESE,112,1.1,-999.0,37,-99.99,,,0.00,Acu-Link.com,2013-08-19 18:56:00,
2013-08-19 12:12:00,92.1,62.8,29.66,SE,135,2.2,-999.0,38,-99.99,,,0.00,Acu-Link.com,2013-08-19 19:12:00,
2013-08-19 12:27:00,95.4,63.4,29.65,East,90,1.7,-999.0,35,-99.99,,,0.00,Acu-Link.com,2013-08-19 19:27:00,
2013-08-19 12:42:00,93.6,62.6,29.65,SSE,157,3.2,-999.0,36,-99.99,,,0.00,Acu-Link.com,2013-08-19 19:42:00,
2013-08-19 12:57:00,96.6,63.6,29.64,WNW,292,1.7,-999.0,34,-99.99,,,0.00,Acu-Link.com,2013-08-19 19:57:00,
2013-08-19 13:12:00,99.0,63.9,29.63,SSE,157,1.1,-999.0,32,-99.99,,,0.00,Acu-Link.com,2013-08-19 20:12:00,
2013-08-19 13:28:00,98.2,62.3,29.63,ESE,112,1.7,-999.0,31,-99.99,,,0.00,Acu-Link.com,2013-08-19 20:28:00,
2013-08-19 13:43:00,100.4,62.3,29.62,WNW,292,2.2,-999.0,29,-99.99,,,0.00,Acu-Link.com,2013-08-19 20:43:00,
2013-08-19 13:58:00,99.0,63.0,29.62,ESE,112,3.2,-999.0,31,-99.99,,,0.00,Acu-Link.com,2013-08-19 20:58:00,
2013-08-19 14:13:00,100.4,62.3,29.62,NW,315,0.0,-999.0,29,-99.99,,,0.00,Acu-Link.com,2013-08-19 21:13:00,
2013-08-19 14:29:00,99.5,62.5,29.62,South,180,0.0,-999.0,30,-99.99,,,0.00,Acu-Link.com,2013-08-19 21:29:00,
2013-08-19 14:44:00,99.1,61.2,29.62,ESE,112,1.7,-999.0,29,-99.99,,,0.00,Acu-Link.com,2013-08-19 21:44:00,
2013-08-19 14:59:00,99.7,61.7,29.61,South,180,4.7,-999.0,29,-99.99,,,0.00,Acu-Link.com,2013-08-19 21:59:00,
2013-08-19 15:14:00,100.8,60.6,29.60,SSE,157,4.2,-999.0,27,-99.99,,,0.00,Acu-Link.com,2013-08-19 22:14:00,
2013-08-19 15:29:00,101.5,60.2,29.61,West,270,1.1,-999.0,26,-99.99,,,0.00,Acu-Link.com,2013-08-19 22:29:00,
2013-08-19 15:45:00,101.7,60.3,29.60,West,270,2.2,-999.0,26,-99.99,,,0.00,Acu-Link.com,2013-08-19 22:45:00,
2013-08-19 16:00:00,99.0,59.1,29.60,SSW,202,1.1,-999.0,27,-99.99,,,0.00,Acu-Link.com,2013-08-19 23:00:00,
2013-08-19 16:15:00,97.7,60.0,29.60,SSE,157,1.7,-999.0,29,-99.99,,,0.00,Acu-Link.com,2013-08-19 23:15:00,
2013-08-19 16:30:00,96.3,60.7,29.60,NNW,337,2.7,-999.0,31,-99.99,,,0.00,Acu-Link.com,2013-08-19 23:30:00,
2013-08-19 16:46:00,95.0,61.3,29.60,SE,135,1.7,-999.0,33,-99.99,,,0.00,Acu-Link.com,2013-08-19 23:46:00,
2013-08-19 17:01:00,92.5,59.2,29.59,East,90,3.7,-999.0,33,-99.99,,,0.00,Acu-Link.com,2013-08-20 00:01:00,
2013-08-19 17:16:00,91.8,58.6,29.59,South,180,3.7,-999.0,33,-99.99,,,0.00,Acu-Link.com,2013-08-20 00:16:00,
2013-08-19 17:32:00,90.0,57.8,29.60,SSE,157,2.7,-999.0,34,-99.99,,,0.00,Acu-Link.com,2013-08-20 00:32:00,
2013-08-19 17:47:00,88.7,57.5,29.59,South,180,2.7,-999.0,35,-99.99,,,0.00,Acu-Link.com,2013-08-20 00:47:00,
2013-08-19 18:02:00,88.2,57.1,29.59,ESE,112,0.0,-999.0,35,-99.99,,,0.00,Acu-Link.com,2013-08-20 01:02:00,
2013-08-19 18:18:00,86.7,56.5,29.59,ESE,112,0.0,-999.0,36,-99.99,,,0.00,Acu-Link.com,2013-08-20 01:18:00,
2013-08-19 18:33:00,86.0,55.9,29.59,East,90,1.7,-999.0,36,-99.99,,,0.00,Acu-Link.com,2013-08-20 01:33:00,
2013-08-19 18:48:00,84.9,55.7,29.60,SW,225,0.0,-999.0,37,-99.99,,,0.00,Acu-Link.com,2013-08-20 01:48:00,
2013-08-19 19:03:00,83.3,55.0,29.60,ESE,112,0.0,-999.0,38,-99.99,,,0.00,Acu-Link.com,2013-08-20 02:03:00,
2013-08-19 19:18:00,82.6,54.4,29.61,SE,135,0.0,-999.0,38,-99.99,,,0.00,Acu-Link.com,2013-08-20 02:18:00,
2013-08-19 19:33:00,81.5,54.1,29.60,ESE,112,0.0,-999.0,39,-99.99,,,0.00,Acu-Link.com,2013-08-20 02:33:00,
2013-08-19 19:49:00,80.1,54.3,29.60,SSE,157,0.0,-999.0,41,-99.99,,,0.00,Acu-Link.com,2013-08-20 02:49:00,
2013-08-19 20:04:00,79.3,54.2,29.60,South,180,0.0,-999.0,42,-99.99,,,0.00,Acu-Link.com,2013-08-20 03:04:00,
2013-08-19 20:19:00,78.3,53.3,29.61,NW,315,0.0,-999.0,42,-99.99,,,0.00,Acu-Link.com,2013-08-20 03:19:00,
2013-08-19 20:35:00,77.4,53.8,29.61,SSW,202,0.0,-999.0,44,-99.99,,,0.00,Acu-Link.com,2013-08-20 03:35:00,
2013-08-19 20:50:00,76.5,54.2,29.62,ENE,67,0.0,-999.0,46,-99.99,,,0.00,Acu-Link.com,2013-08-20 03:50:00,
2013-08-19 21:05:00,75.4,54.3,29.62,SE,135,0.0,-999.0,48,-99.99,,,0.00,Acu-Link.com,2013-08-20 04:05:00,
2013-08-19 21:21:00,74.7,54.3,29.63,SE,135,0.0,-999.0,49,-99.99,,,0.00,Acu-Link.com,2013-08-20 04:21:00,
2013-08-19 21:36:00,74.5,51.7,29.64,SE,135,0.0,-999.0,45,-99.99,,,0.00,Acu-Link.com,2013-08-20 04:36:00,
2013-08-19 21:51:00,74.3,51.0,29.64,South,180,0.0,-999.0,44,-99.99,,,0.00,Acu-Link.com,2013-08-20 04:51:00,
2013-08-19 22:06:00,74.3,51.0,29.65,West,270,0.0,-999.0,44,-99.99,,,0.00,Acu-Link.com,2013-08-20 05:06:00,
2013-08-19 22:21:00,73.9,50.6,29.65,ESE,112,0.0,-999.0,44,-99.99,,,0.00,Acu-Link.com,2013-08-20 05:21:00,
2013-08-19 22:37:00,73.6,50.3,29.66,SSE,157,0.0,-999.0,44,-99.99,,,0.00,Acu-Link.com,2013-08-20 05:37:00,
2013-08-19 22:52:00,73.2,51.7,29.66,ESE,112,0.0,-999.0,47,-99.99,,,0.00,Acu-Link.com,2013-08-20 05:52:00,
2013-08-19 23:07:00,73.0,51.6,29.66,ESE,112,0.0,-999.0,47,-99.99,,,0.00,Acu-Link.com,2013-08-20 06:07:00,
2013-08-19 23:23:00,73.0,52.1,29.67,SSE,157,1.7,-999.0,48,-99.99,,,0.00,Acu-Link.com,2013-08-20 06:23:00,
2013-08-19 23:38:00,73.2,52.3,29.66,SE,135,0.0,-999.0,48,-99.99,,,0.00,Acu-Link.com,2013-08-20 06:38:00,
2013-08-19 23:53:00,72.9,55.3,29.65,ESE,112,0.0,-999.0,54,-99.99,,,0.00,Acu-Link.com,2013-08-20 06:53:00,